TimeCST,TemperatureF,Dew PointF,Humidity,Sea Level PressureIn,VisibilityMPH,Wind Direction,Wind SpeedMPH,Gust SpeedMPH,PrecipitationIn,Events,Conditions,WindDirDegrees,DateUTC
12:15 AM,42.8,23.0,46,29.74,10.0,WSW,19.6,24.2,N/A,,Clear,240,2012-12-18 06:15:00
12:35 AM,41.0,23.0,49,29.75,10.0,WSW,16.1,-,N/A,,Clear,240,2012-12-18 06:35:00
12:55 AM,41.0,23.0,49,29.74,10.0,WSW,15.0,-,N/A,,Clear,250,2012-12-18 06:55:00
1:15 AM,41.0,24.8,53,29.74,10.0,WSW,13.8,-,N/A,,Clear,250,2012-12-18 07:15:00
1:35 AM,41.0,24.8,53,29.73,10.0,WSW,12.7,-,N/A,,Clear,250,2012-12-18 07:35:00
1:55 AM,39.2,26.6,61,29.73,10.0,West,9.2,-,N/A,,Clear,270,2012-12-18 07:55:00
2:15 AM,39.2,26.6,61,29.74,10.0,West,11.5,-,N/A,,Clear,260,2012-12-18 08:15:00
2:35 AM,39.2,26.6,61,29.74,10.0,WSW,13.8,-,N/A,,Clear,250,2012-12-18 08:35:00
2:55 AM,39.2,26.6,61,29.74,10.0,WSW,13.8,-,N/A,,Clear,250,2012-12-18 08:55:00
3:15 AM,39.2,26.6,61,29.74,10.0,West,13.8,-,N/A,,Clear,260,2012-12-18 09:15:00
3:35 AM,39.2,26.6,61,29.74,10.0,West,16.1,-,N/A,,Clear,260,2012-12-18 09:35:00
3:55 AM,37.4,26.6,65,29.74,10.0,West,13.8,-,N/A,,Clear,270,2012-12-18 09:55:00
4:15 AM,37.4,26.6,65,29.74,10.0,West,13.8,-,N/A,,Clear,270,2012-12-18 10:15:00
4:35 AM,37.4,26.6,65,29.74,10.0,West,13.8,-,N/A,,Clear,260,2012-12-18 10:35:00
4:55 AM,37.4,26.6,65,29.74,10.0,West,12.7,-,N/A,,Clear,270,2012-12-18 10:55:00
5:15 AM,35.6,26.6,70,29.74,10.0,West,12.7,-,N/A,,Clear,270,2012-12-18 11:15:00
5:35 AM,35.6,26.6,70,29.74,10.0,West,10.4,-,N/A,,Clear,280,2012-12-18 11:35:00
5:55 AM,35.6,26.6,70,29.75,10.0,West,15.0,20.7,N/A,,Clear,270,2012-12-18 11:55:00
6:15 AM,35.6,26.6,70,29.76,10.0,WNW,11.5,-,N/A,,Clear,290,2012-12-18 12:15:00
6:35 AM,35.6,26.6,70,29.77,10.0,West,13.8,-,N/A,,Clear,280,2012-12-18 12:35:00
6:55 AM,33.8,26.6,75,29.78,10.0,West,12.7,-,N/A,,Clear,280,2012-12-18 12:55:00
7:15 AM,33.8,24.8,70,29.80,10.0,West,10.4,-,N/A,,Clear,280,2012-12-18 13:15:00
7:35 AM,33.8,24.8,70,29.81,10.0,West,11.5,-,N/A,,Clear,280,2012-12-18 13:35:00
7:55 AM,33.8,24.8,70,29.81,10.0,West,10.4,-,N/A,,Clear,280,2012-12-18 13:55:00
8:15 AM,33.8,24.8,70,29.82,10.0,WNW,9.2,-,N/A,,Clear,290,2012-12-18 14:15:00
8:35 AM,35.6,26.6,70,29.82,10.0,WNW,10.4,-,N/A,,Clear,290,2012-12-18 14:35:00
8:55 AM,37.4,26.6,65,29.83,10.0,West,8.1,-,N/A,,Clear,280,2012-12-18 14:55:00
9:15 AM,41.0,26.6,57,29.84,10.0,NW,9.2,-,N/A,,Clear,320,2012-12-18 15:15:00
9:35 AM,42.8,26.6,53,29.85,10.0,NNW,10.4,-,N/A,,Clear,330,2012-12-18 15:35:00
9:55 AM,44.6,26.6,49,29.85,10.0,NNW,10.4,-,N/A,,Clear,330,2012-12-18 15:55:00
10:15 AM,46.4,23.0,40,29.86,10.0,NNW,13.8,-,N/A,,Clear,330,2012-12-18 16:15:00
10:35 AM,48.2,23.0,37,29.87,10.0,NW,9.2,-,N/A,,Clear,320,2012-12-18 16:35:00
10:55 AM,50.0,21.2,32,29.88,10.0,NW,9.2,-,N/A,,Clear,310,2012-12-18 16:55:00
11:15 AM,50.0,19.4,30,29.87,10.0,NNW,10.4,-,N/A,,Clear,340,2012-12-18 17:15:00
11:35 AM,51.8,19.4,28,29.85,10.0,North,10.4,-,N/A,,Clear,350,2012-12-18 17:35:00
11:55 AM,51.8,19.4,28,29.85,10.0,North,8.1,-,N/A,,Clear,360,2012-12-18 17:55:00
12:15 PM,51.8,19.4,28,29.85,10.0,NNE,8.1,-,N/A,,Clear,30,2012-12-18 18:15:00
12:35 PM,53.6,19.4,26,29.84,10.0,NNE,8.1,-,N/A,,Clear,30,2012-12-18 18:35:00
12:55 PM,53.6,19.4,26,29.84,10.0,NE,4.6,-,N/A,,Clear,40,2012-12-18 18:55:00
1:15 PM,53.6,17.6,24,29.83,10.0,East,5.8,-,N/A,,Clear,80,2012-12-18 19:15:00
1:35 PM,53.6,19.4,26,29.81,10.0,ENE,8.1,-,N/A,,Clear,70,2012-12-18 19:35:00
1:55 PM,53.6,19.4,26,29.80,10.0,East,4.6,-,N/A,,Clear,80,2012-12-18 19:55:00
2:15 PM,55.4,19.4,25,29.80,10.0,ENE,6.9,-,N/A,,Clear,70,2012-12-18 20:15:00
2:35 PM,53.6,19.4,26,29.79,10.0,ESE,10.4,-,N/A,,Clear,120,2012-12-18 20:35:00
2:55 PM,53.6,19.4,26,29.79,10.0,SE,6.9,-,N/A,,Clear,130,2012-12-18 20:55:00
3:15 PM,55.4,19.4,25,29.79,10.0,SE,8.1,-,N/A,,Clear,130,2012-12-18 21:15:00
3:35 PM,53.6,19.4,26,29.78,10.0,ESE,8.1,-,N/A,,Clear,110,2012-12-18 21:35:00
3:55 PM,53.6,19.4,26,29.78,10.0,SE,9.2,-,N/A,,Clear,140,2012-12-18 21:55:00
4:15 PM,53.6,19.4,26,29.78,10.0,SE,8.1,-,N/A,,Clear,140,2012-12-18 22:15:00
4:35 PM,55.4,19.4,25,29.78,10.0,SE,9.2,-,N/A,,Clear,140,2012-12-18 22:35:00
4:55 PM,53.6,19.4,26,29.78,10.0,SE,6.9,-,N/A,,Clear,140,2012-12-18 22:55:00
5:15 PM,50.0,19.4,30,29.78,10.0,SE,8.1,-,N/A,,Clear,140,2012-12-18 23:15:00
5:35 PM,48.2,19.4,32,29.78,10.0,SE,8.1,-,N/A,,Clear,130,2012-12-18 23:35:00
5:55 PM,46.4,19.4,34,29.78,10.0,SE,6.9,-,N/A,,Clear,140,2012-12-18 23:55:00
6:15 PM,46.4,19.4,34,29.77,10.0,SE,9.2,-,N/A,,Clear,140,2012-12-19 00:15:00
6:35 PM,44.6,21.2,39,29.77,10.0,SE,9.2,-,N/A,,Clear,140,2012-12-19 00:35:00
6:55 PM,42.8,21.2,42,29.77,10.0,SSE,10.4,-,N/A,,Clear,150,2012-12-19 00:55:00
7:15 PM,42.8,23.0,46,29.76,10.0,SE,12.7,-,N/A,,Clear,140,2012-12-19 01:15:00
7:35 PM,42.8,23.0,46,29.76,10.0,SSE,10.4,-,N/A,,Clear,150,2012-12-19 01:35:00
7:55 PM,41.0,23.0,49,29.76,10.0,SSE,10.4,-,N/A,,Clear,150,2012-12-19 01:55:00
8:15 PM,41.0,23.0,49,29.76,10.0,SE,9.2,-,N/A,,Clear,140,2012-12-19 02:15:00
8:35 PM,41.0,23.0,49,29.76,10.0,SE,6.9,-,N/A,,Clear,140,2012-12-19 02:35:00
8:55 PM,41.0,23.0,49,29.75,10.0,SSE,11.5,-,N/A,,Clear,150,2012-12-19 02:55:00
9:15 PM,42.8,23.0,46,29.76,10.0,SSE,11.5,-,N/A,,Clear,150,2012-12-19 03:15:00
9:35 PM,41.0,23.0,49,29.75,10.0,SSE,10.4,-,N/A,,Clear,150,2012-12-19 03:35:00
9:55 PM,41.0,24.8,53,29.74,10.0,SSE,11.5,-,N/A,,Clear,150,2012-12-19 03:55:00
10:15 PM,41.0,24.8,53,29.74,10.0,SSE,10.4,-,N/A,,Clear,150,2012-12-19 04:15:00
10:35 PM,41.0,26.6,57,29.75,10.0,SSE,11.5,-,N/A,,Clear,150,2012-12-19 04:35:00
10:55 PM,41.0,26.6,57,29.74,10.0,SSE,9.2,-,N/A,,Clear,150,2012-12-19 04:55:00
11:15 PM,41.0,26.6,57,29.74,10.0,SSE,9.2,-,N/A,,Clear,150,2012-12-19 05:15:00
11:35 PM,42.8,26.6,53,29.75,10.0,SSE,12.7,-,N/A,,Clear,160,2012-12-19 05:35:00
11:55 PM,41.0,26.6,57,29.74,10.0,SSE,9.2,-,N/A,,Clear,160,2012-12-19 05:55:00